Regional Weather Roundup
Issued by NWS Raleigh/Durham, NC

Home | Current Version | Previous Version | Text Only | Print | Product List | Glossary On
Versions: 1 2 3 4 5 6 7 8 9 10 11 12 13 14 15 16 17 18 19 20 21 22 23 24 25 26 27 28 29 30 31 32 33 34 35 36 37 38 39 40 41 42 43 44 45 46 47 48 49 50
662
ASUS42 KRAH 241410
RWRRAH
NORTH CAROLINA WEATHER ROUNDUP
NATIONAL WEATHER SERVICE RALEIGH NC
1000 AM EDT SUN SEP 24 2017

NOTE: "FAIR" INDICATES FEW OR NO CLOUDS BELOW 12,000 FEET WITH NO
SIGNIFICANT WEATHER AND/OR OBSTRUCTIONS TO VISIBILITY.

NCZ001-053-055-056-065-067-241500-
WESTERN NORTH CAROLINA

CITY           SKY/WX    TMP DP  RH WIND       PRES   REMARKS
ASHEVILLE      MOSUNNY   66  63  90 NW5       30.20S
JEFFERSON      SUNNY     64  59  84 CALM      30.24S
MORGANTON      PTSUNNY   66  61  83 CALM      30.19S
HICKORY        PTSUNNY   68  64  87 CALM      30.15R
RUTHERFORDTON  SUNNY     72  63  72 CALM      30.15S
MOUNT AIRY     SUNNY     73  63  69 CALM      30.17S
BOONE          SUNNY     57  57 100 CALM      30.25S
$$

NCZ021-022-025-041-071-084-088-241500-
CENTRAL NORTH CAROLINA

CITY           SKY/WX    TMP DP  RH WIND       PRES   REMARKS
CHARLOTTE      PTSUNNY   74  65  73 N6        30.12S
GREENSBORO     PTSUNNY   74  64  71 NE6       30.13R
WINSTON-SALEM  SUNNY     75  60  59 NE7       30.15R
RALEIGH-DURHAM PTSUNNY   74  66  76 NE7       30.11R
FORT BRAGG     SUNNY     78  67  67 NE7       30.07R
FAYETTEVILLE   SUNNY     78  68  71 NE9       30.07R
BURLINGTON     MOSUNNY   75  65  70 N7        30.12R
LAURINBURG     MOSUNNY   77  68  73 NE9       30.08R
$$

NCZ011-015-027-028-043-044-047-080-103-241500-
NORTHEASTERN NORTH CAROLINA

CITY           SKY/WX    TMP DP  RH WIND       PRES   REMARKS
ROCKY MT-WILSO MOSUNNY   76  68  76 N9        30.09S
GREENVILLE     MOSUNNY   73  70  88 N5        30.09S
WASHINGTON     MOSUNNY   74  70  87 N6        30.07S
ELIZABETH CITY MOSUNNY   77  71  82 N7        30.06S
MANTEO         MOSUNNY   77  67  71 NE8       30.05S
CAPE HATTERAS  MOSUNNY   78  69  73 NE12G22   30.03S
$$

NCZ078-087-090-091-093-098-101-241500-
SOUTHEASTERN NORTH CAROLINA

CITY           SKY/WX    TMP DP  RH WIND       PRES   REMARKS
LUMBERTON      NOT AVBL
GOLDSBORO      SUNNY     75  74  97 NE7       30.06S
KINSTON        MOSUNNY   75  70  83 N5        30.08S
KENANSVILLE    MOSUNNY   73  68  83 NE8       30.07S
NEW BERN       MOSUNNY   76  69  79 NE12      30.06S
CHERRY POINT   MOSUNNY   78  71  79 NE12      30.04S
BEAUFORT       MOSUNNY   78  71  79 NE14G25   30.02R
JACKSONVILLE   MOSUNNY   77  70  79 NE12G21   30.03S
WILMINGTON     PTSUNNY   79  68  69 NE17      30.02S
$$





USA.gov is the U.S. government's official web portal to all federal, state and local government web resources and services.